Location: Caltech
(34.1382°N, 118.1253°W)
Time: 13:41:47
(UTC-07:00)

FENGYUN 3A - Visible Passes

Search period start: 30 April 2016 00:00
Search period end: 10 May 2016 00:00
Orbit: 819 x 834 km, 98.5° (Epoch: 30 April)

Date Brightness Start Highest point End Pass type
(mag) Time Alt. Az. Time Alt. Az. Time Alt. Az.
30 Apr 5.3 21:32:13 10° SSW 21:36:51 30° W 21:41:31 10° NW visible
01 May 4.6 21:12:48 10° S 21:17:55 46° W 21:23:03 10° NNW visible
02 May 3.8 20:53:42 10° S 20:59:01 72° WSW 21:04:22 10° NNW visible
03 May 3.6 20:34:52 10° SSE 20:40:11 76° ENE 20:45:32 10° N visible
03 May 6.4 22:20:11 10° W 22:20:54 10° W 22:21:36 10° W visible
04 May 3.9 20:16:16 10° SSE 20:21:23 49° ENE 20:26:32 10° N visible
04 May 6.1 21:58:28 10° SW 22:01:51 17° W 22:05:13 10° NW visible
05 May 5.5 21:38:26 10° SSW 21:42:50 26° W 21:47:16 10° NW visible
06 May 4.8 21:18:55 10° SSW 21:23:53 40° W 21:28:54 10° NNW visible
07 May 4.1 20:59:43 10° S 21:04:59 61° W 21:10:17 10° NNW visible
08 May 3.6 20:40:47 10° SSE 20:46:07 87° E 20:51:30 10° NNW visible
09 May 3.8 20:22:06 10° SSE 20:27:18 57° ENE 20:32:34 10° N visible
09 May 6.2 22:05:03 10° SW 22:07:51 14° W 22:10:40 10° WNW visible
